ENY3392 MMMY-KDFW

Flight info

Callsign ENY3392
Flight time N/A
Altitude 35000
Route NLD DCT SAT DCT GUTZZ SHMPP3
Aircraft E75S/M-SDE3GILORVW/S

Departure

Time 2026-04-30 01:22
Airport Monterrey International Airport (MMMY)

Arrival

Time N/A
Airport Dallas Fort Worth International Airport (KDFW)
Time Latitude Longitude Altitude Speed Heading
2026-04-30 00:53 25.77848 -100.11285 1328 ft 0 kts 211°
2026-04-30 01:13 25.77850 -100.11283 1328 ft 2 kts 212°
2026-04-30 01:14 25.77866 -100.11272 1328 ft 3 kts 218°
2026-04-30 01:14 25.77881 -100.11257 1328 ft 3 kts 225°
2026-04-30 01:14 25.77895 -100.11240 1331 ft 3 kts 235°
2026-04-30 01:14 25.77904 -100.11221 1332 ft 3 kts 251°
2026-04-30 01:15 25.77906 -100.11200 1332 ft 3 kts 286°
2026-04-30 01:15 25.77903 -100.11192 1330 ft 0 kts 301°
2026-04-30 01:18 25.77910 -100.11204 1331 ft 6 kts 301°
2026-04-30 01:18 25.77944 -100.11265 1328 ft 11 kts 301°
2026-04-30 01:19 25.77998 -100.11363 1328 ft 20 kts 301°
2026-04-30 01:19 25.78075 -100.11505 1328 ft 22 kts 302°
2026-04-30 01:19 25.78158 -100.11656 1328 ft 23 kts 301°
2026-04-30 01:19 25.78228 -100.11785 1328 ft 14 kts 312°
2026-04-30 01:20 25.78312 -100.11776 1328 ft 14 kts 33°
2026-04-30 01:20 25.78387 -100.11723 1328 ft 11 kts 43°
2026-04-30 01:20 25.78384 -100.11665 1328 ft 1 kts 121°
2026-04-30 01:20 25.78384 -100.11664 1328 ft 0 kts 121°
2026-04-30 01:21 25.78381 -100.11659 1328 ft 0 kts 121°
2026-04-30 01:21 25.78359 -100.11617 1328 ft 24 kts 120°
2026-04-30 01:21 25.78147 -100.11232 1328 ft 92 kts 121°
2026-04-30 01:21 25.77697 -100.10421 1329 ft 152 kts 121°
2026-04-30 01:22 25.77261 -100.09592 1513 ft 176 kts 119°
2026-04-30 01:22 25.76727 -100.08331 2202 ft 188 kts 101°
2026-04-30 01:22 25.76977 -100.06873 2838 ft 207 kts 54°
2026-04-30 01:22 25.78118 -100.05941 3942 ft 197 kts 25°
2026-04-30 01:23 25.79378 -100.05422 4922 ft 201 kts 15°
2026-04-30 01:23 25.80785 -100.05163 5536 ft 214 kts
2026-04-30 01:23 25.82325 -100.05212 6126 ft 227 kts 352°
2026-04-30 01:23 25.83906 -100.05610 6568 ft 249 kts 341°
2026-04-30 01:24 25.85876 -100.06068 5294 ft 336 kts
2026-04-30 01:24 25.88357 -100.05702 5489 ft 308 kts 11°